Regional Weather Roundup
Issued by NWS

Home | Current Version | Previous Version | Graphics & Text | Print | Product List | Glossary On
Versions: 1 2 3 4 5 6 7 8 9 10 11 12 13 14 15 16 17 18 19 20 21 22 23 24 25 26 27 28 29 30 31 32 33 34 35 36 37 38 39 40 41 42 43 44 45 46 47 48 49 50
000
ASUS43 KIND 241409
RWRIN

WEATHER ROUNDUP FOR INDIANA
NATIONAL WEATHER SERVICE INDIANAPOLIS IN
1000 AM EDT FRI MAR 24 2017

NOTE: "FAIR" INDICATES FEW OR NO CLOUDS BELOW 12,000 FEET WITH NO
SIGNIFICANT WEATHER AND/OR OBSTRUCTIONS TO VISIBILITY.

* - STATION DOES NOT REPORT WEATHER SUCH AS PRECIPITATION OR FOG.

+ - STATION NOT QUALITY CONTROLLED BY THE NATIONAL WEATHER SERVICE.
    USE DATA WITH CAUTION...ESPECIALLY DEWPOINT AND RELATIVE
    HUMIDITY OBSERVATIONS.

INZ001>003-010>013-019-020-241500-
NORTHWEST INDIANA

CITY           SKY/WX    TMP DP  RH WIND       PRES   REMARKS
GARY /AIRPORT/ PTSUNNY   59  45  58 S15G29    29.96S
KNOX *+        CLOUDY    59  28  31 SW17G24   30.00S
LA PORTE +     CLOUDY    57  48  71 SW16G23   30.00R
MICHIGAN CITY+ MOSUNNY   59  46  63 S15G25    29.97F
MONTICELLO +   CLOUDY    59  48  67 S13G18    30.05S
RENSSELAER +   SUNNY     59  50  72 S18G24    30.03R
VALPARAISO     CLOUDY    60  49  66 SW18G26   30.00S

$$

LMZ046-743>745-241500-
SOUTHERN LAKE MICHIGAN

STATION/POSITION TIME  TEMP    WIND        PRES    WAVE
                       AIR SEA DIR/SP/G            HT
                 (UTC) (F)     (DEG/KT/KT) (MB)    (FT)
BURNS HARBOR     1340   58     200/ 23/ 28 1014.6S
MICHIGAN CITY    1340   59     180/ 23/ 28   N/A

$$

INZ004-005-014>016-021>024-241500-
NORTH CENTRAL INDIANA

CITY           SKY/WX    TMP DP  RH WIND       PRES   REMARKS
ELKHART        SUNNY     57  46  67 SW12G17   30.00S
GOSHEN         SUNNY     57  45  64 SW20      30.01F
LOGANSPORT +   CLOUDY    59  50  72 S16G22    30.08S
PERU/GRISSOM   CLOUDY    56  49  76 S10       30.06F
ROCHESTER +    MOSUNNY   59  46  63 SW16G26   30.05S
SOUTH BEND     SUNNY     58  47  66 SW21G31   29.99F
WARSAW +       SUNNY     55  45  67 SW14G20   30.03F

$$

INZ006>009-017-018-025>027-241500-
NORTHEAST INDIANA

CITY           SKY/WX    TMP DP  RH WIND       PRES   REMARKS
ANGOLA *+      SUNNY     55  45  67 S13       30.02S
AUBURN +       PTSUNNY   55  45  67 S10G20    30.05F
FORT WAYNE     PTSUNNY   57  47  69 SW18      30.07S
HUNTINGTON +   MOSUNNY   56  46  70 S14G21    30.07F
KENDALLVILLE + CLOUDY    56  46  70 SW18G25   30.03F

$$

INZ028-029-035-036-043>045-051>053-241500-
WEST CENTRAL INDIANA

CITY           SKY/WX    TMP DP  RH WIND       PRES   REMARKS
CRAWFORDSVL +  CLOUDY    59  51  76 S13G18    30.10S
GREENCASTLE +  MOSUNNY   59  50  72 S14G21    30.13S
LAFAYETTE      CLOUDY    60  51  72 S8        30.07S
TERRE HAUTE    MOSUNNY   60  50  69 S14       30.12R

$$

INZ030>032-037>040-046>048-054>057-064-065-241500-
CENTRAL INDIANA

CITY           SKY/WX    TMP DP  RH WIND       PRES   REMARKS
ANDERSON       SUNNY     55  46  71 S12G17    30.15R
CP ATTERBURY + SUNNY     61  48  63 SW9       30.16R
COLUMBUS       SUNNY     57  48  72 S15G21    30.16R
FISHERS *+     CLOUDY    55  50  82 S7        30.14R
FRANKFORT +    MOSUNNY   61  52  72 SW12      30.11S
GREENWOOD *+   CLOUDY    58  49  71 S9        30.15R
INDIANAPOLIS   PTSUNNY   59  49  69 S12       30.13R
-EAGLE CREEK   CLOUDY    59  47  64 S6        30.13R
KOKOMO +       CLOUDY    54  46  74 S15       30.10S
MARION +       MOSUNNY   54  46  72 S18G24    30.11F
MT COMFORT *+  CLOUDY    55  46  71 S9        30.16R
SHELBYVILLE    CLOUDY    58  46  64 S13       30.16R
ZIONSVILLE +   CLOUDY    58  49  72 S10       30.13S

$$

INZ033-034-041-042-049-050-058-059-241500-
EAST CENTRAL INDIANA

CITY           SKY/WX    TMP DP  RH WIND       PRES   REMARKS
MUNCIE         CLOUDY    57  45  64 S17       30.13R
RICHMOND +     CLOUDY    52  43  71 S14       30.19R

$$

INZ060-061-067>069-081>083-085>088-241500-
SOUTHWEST INDIANA

CITY           SKY/WX    TMP DP  RH WIND       PRES   REMARKS
EVANSVILLE     SUNNY     65  54  67 S14G23    30.16R
HUNTINGBURG *+ SUNNY     62  52  69 S17G25    30.18R
WASHINGTON +   SUNNY     63  50  64 MISG      30.15R

$$

INZ062-063-066-070>080-084-089>092-241500-
SOUTH CENTRAL AND SOUTHEAST INDIANA

CITY           SKY/WX    TMP DP  RH WIND       PRES   REMARKS
BEDFORD +      SUNNY     61  48  63 S8        30.16R
BLOOMINGTON    MOSUNNY   64  52  64 SW18G29   30.16R
MADISON *+     SUNNY     61  43  51 S15G25    30.22R
NORTH VERNON + MOSUNNY   59  45  58 S16G24    30.18R
SEYMOUR +      SUNNY     63  48  59 S18G25    30.17R

$$





USA.gov is the U.S. government's official web portal to all federal, state and local government web resources and services.